User: anonymous   Login
Location: Unspecified
(0.0000°N, 0.0000°E)
Time: 22:19:22
(UTC+00:00)
Language:

STARLINK-4764 - Orbit

View from above orbital plane
View from above orbital plane
View from above satellite
View from above satellite

Ground track
Ground track

The orbit is defined by the following mean orbital elements,

1 53827U          26145.48280382 +.00000000 +00000-0 -36034-4 0 00002
2 53827  53.2147 319.4441 0000865  87.0224 273.0867 15.08827662    05
Epoch (UTC): 25 May 2026 11:35:14
Eccentricity: 0.0000865
inclination: 53.2147°
perigee height: 539 km
apogee height: 540 km
right ascension of ascending node: 319.4441°
argument of perigee: 87.0224°
revolutions per day: 15.08827662
mean anomaly at epoch: 273.0867°

The dashed part of the orbit path shows where the satellite is in the earth's shadow,  

DLR